CZ-4B DEB, 46480

Orbit data source: Space-Track

CZ-4B DEB, 46480 is space debris in SSO originally from a launch on Sun, 27 Sep 2020 UTC launched from the Taiyaun Space Center, China (TSC). Debris objects in space refer to the collection of defunct objects orbiting the Earth. Examples of debris include non-operational satellites, rocket bodies, and fragments generated from explosions, collisions, or faulty payload assembly.

Loading next visibility...
Identifier
46480, 2020-067C
Orbit
SSO
Country
Flag of CNCN / PRC
Related business
Manufacturer
SAST
Mission
Spacecraft
Bus & Motor
Unknown
Mass
Unknown
Launch date (UTC)
2020-09-27 (5 years ago)
Launch vehicle
Unknown
Launch site
Taiyaun Space Center, China (TSC)
Object type
Payload
Rocket body
Debris
Shape & HBR
Unknown
Radar Cross Section
Large (>1 m²)

Expand to show TLE details & history
Last TLE update: 20 hours ago

TLE from 20 hours ago
0 CZ-4B DEB
1 46480U 20067C   25260.92452994  .00028280  00000-0  12635-2 0  9995
2 46480  97.8766   6.8864 0018119 155.2913 204.9193 15.21157432270609
Epoch: 2025-09-17T22:11Z
TLE epoch observation values (Epoch: 2025-09-17T22:11:19.386Z)
Latitude
-0.00007°
Longitude
36.96214°
Altitude
516.739 km
Speed
7.599 km/s
True Right ascension
00h 27m 32s
True Declination
0° 00' 00"
Sunlit
Object was in full shadow at epoch
Visualization orbit readout
Latitude
Unknown
Longitude
Unknown
Altitude
Unknown
Speed
Unknown
Apparent Right ascension
Unknown
Apparent Declination
Unknown
Sunlit
N/A
Visualization observer readout
Local Sidereal Time
11:19:34
Azimuth
Unknown
Elevation
Unknown
Doppler factor
Unknown
Orbital elements
Apogee altitude
511.795 km
Perigee altitude
486.872 km
Semi-major axis
6,877.47 km
Eccentricity
0.00181
Inclination
97.8766°
RAAN
6.8864°
Arg. of periapsis
155.2913°
True anomaly
204.832°
Mean anomaly
204.9193°
Eccentric anomaly
204.87563°
Mean motion
3.8054 °/min
Orbital period
94.6 mins
BSTAR
0.0012635
Loading maneuver chart data...
Computing Atmospheric mass density...
Loading historical data...
Loading historical data...
Loading historical data...
Loading historical data...
Loading historical data...
Loading historical data...
Loading historical data...

Documentation

Showing up to 5 results
|